| time (UTC) | temp F | wind direction | speed knots | gust knots | rain 1hr in | rain 24hr in | rain mn in | humidity % | barometer mb |
| 20260904030006 | 74 | 154 | 9.6 | 13.9 | 0.00 | 0.00 | 0.00 | 29 | 1015.9 |
| 20260904030002 | 74 | 154 | 8.7 | 13.9 | 0.00 | 0.00 | 0.00 | 29 | 1000.0 |
| 20260904024503 | 75 | 172 | 8.7 | 13.0 | 0.00 | 0.00 | 0.00 | 25 | 1015.7 |
| 20260904024004 | 75 | 163 | 8.7 | 13.0 | 0.00 | 0.00 | 0.00 | 25 | 1015.6 |
| 20260904023004 | 75 | 191 | 7.8 | 12.2 | 0.00 | 0.00 | 0.00 | 25 | 1015.5 |
| 20260904023002 | 75 | 191 | 7.8 | 12.2 | 0.00 | 0.00 | 0.00 | 25 | 999.5 |
| 20260904022006 | 75 | 171 | 7.8 | 12.2 | 0.00 | 0.00 | 0.00 | 26 | 1015.4 |
| 20260904021504 | 75 | 169 | 7.8 | 13.0 | 0.00 | 0.00 | 0.00 | 26 | 1015.4 |
| 20260904021004 | 75 | 194 | 8.7 | 13.0 | 0.00 | 0.00 | 0.00 | 26 | 1015.3 |
| 20260904020504 | 75 | 153 | 7.8 | 13.0 | 0.00 | 0.00 | 0.00 | 26 | 1015.3 |
| 20260904020006 | 75 | 172 | 7.8 | 12.2 | 0.00 | 0.00 | 0.00 | 26 | 1015.3 |
| 20260904020003 | 75 | 172 | 7.8 | 12.2 | 0.00 | 0.00 | 0.00 | 26 | 999.3 |
| 20260904015503 | 75 | 165 | 7.0 | 10.4 | 0.00 | 0.00 | 0.00 | 26 | 1015.2 |
| 20260904014502 | 75 | 163 | 7.0 | 9.6 | 0.00 | 0.00 | 0.00 | 27 | 999.2 |
| 20260904014005 | 75 | 159 | 7.0 | 9.6 | 0.00 | 0.00 | 0.00 | 27 | 1015.2 |
| 20260904013505 | 76 | 173 | 6.1 | 9.6 | 0.00 | 0.00 | 0.00 | 26 | 1015.1 |
| 20260904013002 | 76 | 194 | 7.0 | 10.4 | 0.00 | 0.00 | 0.00 | 26 | 999.1 |
| 20260904012503 | 77 | 167 | 7.8 | 10.4 | 0.00 | 0.00 | 0.00 | 25 | 1015.0 |
| 20260904012004 | 78 | 171 | 7.0 | 9.6 | 0.00 | 0.00 | 0.00 | 25 | 1014.9 |
| 20260904011504 | 78 | 167 | 7.0 | 12.2 | 0.00 | 0.00 | 0.00 | 24 | 998.9 |
| 20260904011005 | 79 | 153 | 7.8 | 12.2 | 0.00 | 0.00 | 0.00 | 24 | 1014.9 |
| 20260904010505 | 79 | 184 | 7.0 | 13.0 | 0.00 | 0.00 | 0.00 | 23 | 1014.9 |
| 20260904010007 | 79 | 176 | 7.0 | 13.0 | 0.00 | 0.00 | 0.00 | 23 | 1014.8 |
| 20260904010003 | 79 | 176 | 7.0 | 13.0 | 0.00 | 0.00 | 0.00 | 23 | 998.8 |
| 20260904005504 | 80 | 158 | 7.8 | 10.4 | 0.00 | 0.00 | 0.00 | 23 | 1014.8 |
| 20260904005005 | 80 | 164 | 7.8 | 12.2 | 0.00 | 0.00 | 0.00 | 23 | 1014.9 |
| 20260904004503 | 81 | 157 | 7.0 | 15.6 | 0.00 | 0.00 | 0.00 | 23 | 1014.9 |
| 20260904004005 | 81 | 186 | 8.7 | 13.9 | 0.00 | 0.00 | 0.00 | 22 | 1014.9 |
| 20260904003504 | 81 | 165 | 8.7 | 13.9 | 0.00 | 0.00 | 0.00 | 23 | 1014.9 |
| 20260904003002 | 82 | 155 | 8.7 | 14.8 | 0.00 | 0.00 | 0.00 | 22 | 999.0 |
| 20260904002005 | 82 | 166 | 10.4 | 15.6 | 0.00 | 0.00 | 0.00 | 22 | 1014.9 |
| 20260904001503 | 83 | 163 | 10.4 | 15.6 | 0.00 | 0.00 | 0.00 | 21 | 1014.9 |
| 20260904001501 | 83 | 163 | 9.6 | 15.6 | 0.00 | 0.00 | 0.00 | 21 | 999.0 |
| 20260904001006 | 83 | 182 | 10.4 | 15.6 | 0.00 | 0.00 | 0.00 | 21 | 1014.9 |
| 20260904000008 | 83 | 119 | 11.3 | 15.6 | 0.00 | 0.00 | 0.00 | 21 | 1015.0 |
| 20260904000003 | 83 | 119 | 11.3 | 15.6 | 0.00 | 0.00 | 0.00 | 21 | 999.1 |
| 20260903234502 | 84 | 202 | 5.2 | 17.4 | 0.00 | 0.00 | 0.00 | 19 | 998.9 |
| 20260903234004 | 84 | 145 | 10.4 | 17.4 | 0.00 | 0.00 | 0.00 | 21 | 1014.9 |
| 20260903233503 | 84 | 135 | 10.4 | 13.9 | 0.00 | 0.00 | 0.00 | 21 | 1015.0 |
| 20260903233006 | 84 | 166 | 8.7 | 13.9 | 0.00 | 0.00 | 0.00 | 19 | 1015.0 |
| 20260903233002 | 84 | 166 | 8.7 | 13.9 | 0.00 | 0.00 | 0.00 | 19 | 999.1 |
| 20260903232005 | 84 | 131 | 7.8 | 12.2 | 0.00 | 0.00 | 0.00 | 20 | 1015.0 |
| 20260903231502 | 84 | 126 | 7.0 | 12.2 | 0.00 | 0.00 | 0.00 | 20 | 999.1 |
| 20260903231006 | 84 | 131 | 7.0 | 12.2 | 0.00 | 0.00 | 0.00 | 20 | 1015.1 |
| 20260903230504 | 84 | 130 | 7.8 | 14.8 | 0.00 | 0.00 | 0.00 | 19 | 1015.0 |
| 20260903230006 | 85 | 137 | 8.7 | 14.8 | 0.00 | 0.00 | 0.00 | 19 | 999.1 |
| 20260903225504 | 84 | 150 | 9.6 | 12.2 | 0.00 | 0.00 | 0.00 | 19 | 1015.1 |
| 20260903225006 | 84 | 120 | 6.1 | 13.0 | 0.00 | 0.00 | 0.00 | 19 | 1015.2 |
| 20260903224504 | 84 | 149 | 7.0 | 13.0 | 0.00 | 0.00 | 0.00 | 18 | 1015.2 |
| 20260903224502 | 84 | 149 | 6.1 | 13.0 | 0.00 | 0.00 | 0.00 | 18 | 999.2 |
| 20260903224005 | 84 | 171 | 7.8 | 13.9 | 0.00 | 0.00 | 0.00 | 19 | 1015.4 |
| 20260903223503 | 84 | 121 | 8.7 | 13.9 | 0.00 | 0.00 | 0.00 | 18 | 1015.3 |
| 20260903223005 | 84 | 143 | 10.4 | 14.8 | 0.00 | 0.00 | 0.00 | 18 | 1015.3 |
| 20260903223003 | 84 | 143 | 10.4 | 14.8 | 0.00 | 0.00 | 0.00 | 18 | 999.3 |
| 20260903222503 | 84 | 133 | 11.3 | 16.5 | 0.00 | 0.00 | 0.00 | 20 | 1015.3 |
| 20260903222006 | 84 | 142 | 12.2 | 16.5 | 0.00 | 0.00 | 0.00 | 20 | 1015.4 |
| 20260903221504 | 84 | 156 | 11.3 | 18.2 | 0.00 | 0.00 | 0.00 | 20 | 1015.4 |
| 20260903221502 | 84 | 156 | 11.3 | 18.2 | 0.00 | 0.00 | 0.00 | 20 | 999.4 |
| 20260903221005 | 83 | 122 | 8.7 | 18.2 | 0.00 | 0.00 | 0.00 | 21 | 1015.5 |
| 20260903220505 | 84 | 106 | 8.7 | 16.5 | 0.00 | 0.00 | 0.00 | 22 | 1015.5 |
| 20260903220006 | 83 | 121 | 10.4 | 13.9 | 0.00 | 0.00 | 0.00 | 22 | 1015.6 |
| 20260903220002 | 83 | 121 | 10.4 | 13.9 | 0.00 | 0.00 | 0.00 | 22 | 999.6 |
| 20260903215504 | 83 | 122 | 8.7 | 13.9 | 0.00 | 0.00 | 0.00 | 20 | 1015.7 |
| 20260903215004 | 83 | 121 | 4.3 | 11.3 | 0.00 | 0.00 | 0.00 | 22 | 1015.7 |
| 20260903214502 | 83 | 69 | 7.0 | 13.0 | 0.00 | 0.00 | 0.00 | 21 | 999.8 |
| 20260903214005 | 83 | 95 | 7.8 | 13.0 | 0.00 | 0.00 | 0.00 | 21 | 1015.9 |
| 20260903213503 | 83 | 158 | 10.4 | 13.9 | 0.00 | 0.00 | 0.00 | 21 | 1015.9 |
| 20260903213005 | 83 | 133 | 5.2 | 9.6 | 0.00 | 0.00 | 0.00 | 22 | 1000.0 |
| 20260903212006 | 82 | 107 | 3.5 | 13.0 | 0.00 | 0.00 | 0.00 | 21 | 1016.0 |
| 20260903211504 | 83 | 117 | 6.1 | 13.0 | 0.00 | 0.00 | 0.00 | 21 | 1016.1 |
| 20260903211502 | 83 | 117 | 6.1 | 13.0 | 0.00 | 0.00 | 0.00 | 21 | 1000.2 |
| 20260903211004 | 83 | 101 | 8.7 | 11.3 | 0.00 | 0.00 | 0.00 | 23 | 1016.2 |
| 20260903210504 | 83 | 191 | 6.1 | 17.4 | 0.00 | 0.00 | 0.00 | 21 | 1016.2 |
| 20260903210006 | 83 | 138 | 7.8 | 17.4 | 0.00 | 0.00 | 0.00 | 22 | 1016.3 |
| 20260903210002 | 83 | 138 | 7.8 | 17.4 | 0.00 | 0.00 | 0.00 | 22 | 1000.3 |
| 20260903205504 | 83 | 115 | 7.0 | 12.2 | 0.00 | 0.00 | 0.00 | 23 | 1016.4 |
| 20260903204503 | 82 | 138 | 5.2 | 14.8 | 0.00 | 0.00 | 0.00 | 24 | 1016.5 |
| 20260903204005 | 83 | 94 | 11.3 | 14.8 | 0.00 | 0.00 | 0.00 | 21 | 1016.5 |
| 20260903203004 | 83 | 154 | 7.0 | 12.2 | 0.00 | 0.00 | 0.00 | 22 | 1000.8 |
| 20260903202504 | 83 | 145 | 9.6 | 12.2 | 0.00 | 0.00 | 0.00 | 23 | 1016.6 |
| 20260903202006 | 82 | 161 | 7.8 | 13.9 | 0.00 | 0.00 | 0.00 | 23 | 1016.6 |
| 20260903201504 | 82 | 151 | 8.7 | 13.9 | 0.00 | 0.00 | 0.00 | 21 | 1016.7 |
| 20260903200504 | 82 | 135 | 8.7 | 15.6 | 0.00 | 0.00 | 0.00 | 23 | 1016.7 |
| 20260903200008 | 82 | 124 | 12.2 | 15.6 | 0.00 | 0.00 | 0.00 | 23 | 1001.1 |
| 20260903195005 | 82 | 144 | 7.8 | 14.8 | 0.00 | 0.00 | 0.00 | 25 | 1016.9 |
| 20260903194504 | 81 | 97 | 8.7 | 14.8 | 0.00 | 0.00 | 0.00 | 25 | 1016.9 |
| 20260903194502 | 81 | 97 | 8.7 | 14.8 | 0.00 | 0.00 | 0.00 | 25 | 1001.3 |
| 20260903194005 | 81 | 111 | 9.6 | 14.8 | 0.00 | 0.00 | 0.00 | 24 | 1016.9 |
| 20260903193504 | 81 | 159 | 4.3 | 15.6 | 0.00 | 0.00 | 0.00 | 24 | 1017.0 |
| 20260903193005 | 81 | 140 | 9.6 | 14.8 | 0.00 | 0.00 | 0.00 | 24 | 1017.1 |
| 20260903193002 | 81 | 140 | 9.6 | 14.8 | 0.00 | 0.00 | 0.00 | 24 | 1001.5 |
| 20260903192503 | 81 | 128 | 10.4 | 13.9 | 0.00 | 0.00 | 0.00 | 24 | 1017.2 |
| 20260903192006 | 82 | 190 | 7.0 | 13.0 | 0.00 | 0.00 | 0.00 | 25 | 1017.2 |
| 20260903191503 | 82 | 144 | 6.1 | 13.0 | 0.00 | 0.00 | 0.00 | 24 | 1017.3 |
| 20260903191004 | 81 | 116 | 8.7 | 15.6 | 0.00 | 0.00 | 0.00 | 25 | 1017.3 |
| 20260903190002 | 82 | 180 | 7.0 | 13.9 | 0.00 | 0.00 | 0.00 | 22 | 1001.8 |
| 20260903185504 | 82 | 205 | 6.1 | 9.6 | 0.00 | 0.00 | 0.00 | 21 | 1017.5 |
| 20260903185005 | 81 | 205 | 4.3 | 10.4 | 0.00 | 0.00 | 0.00 | 22 | 1017.4 |
| 20260903184502 | 81 | 231 | 2.6 | 10.4 | 0.00 | 0.00 | 0.00 | 22 | 1002.0 |
| 20260903184006 | 82 | 254 | 4.3 | 9.6 | 0.00 | 0.00 | 0.00 | 24 | 1017.7 |
| 20260903183505 | 82 | 266 | 3.5 | 9.6 | 0.00 | 0.00 | 0.00 | 24 | 1017.8 |
| 20260903183007 | 81 | 211 | 5.2 | 10.4 | 0.00 | 0.00 | 0.00 | 24 | 1017.8 |
| 20260903183003 | 81 | 211 | 4.3 | 10.4 | 0.00 | 0.00 | 0.00 | 24 | 1002.2 |
| 20260903182507 | 81 | 239 | 4.3 | 10.4 | 0.00 | 0.00 | 0.00 | 22 | 1018.0 |
| 20260903182005 | 80 | 232 | 3.5 | 9.6 | 0.00 | 0.00 | 0.00 | 25 | 1018.0 |
| 20260903181503 | 80 | 294 | 3.5 | 12.2 | 0.00 | 0.00 | 0.00 | 24 | 1018.0 |
| 20260903180504 | 80 | 222 | 2.6 | 7.8 | 0.00 | 0.00 | 0.00 | 25 | 1018.2 |
| 20260903180007 | 80 | 155 | 5.2 | 8.7 | 0.00 | 0.00 | 0.00 | 24 | 1018.3 |
| 20260903180003 | 80 | 155 | 5.2 | 8.7 | 0.00 | 0.00 | 0.00 | 24 | 1002.7 |
| 20260903175503 | 79 | 212 | 2.6 | 11.3 | 0.00 | 0.00 | 0.00 | 26 | 1018.3 |
| 20260903175005 | 79 | 218 | 4.3 | 11.3 | 0.00 | 0.00 | 0.00 | 24 | 1018.4 |
| 20260903174506 | 79 | 241 | 5.2 | 11.3 | 0.00 | 0.00 | 0.00 | 25 | 1018.4 |
| 20260903174006 | 79 | 309 | 3.5 | 6.1 | 0.00 | 0.00 | 0.00 | 25 | 1018.4 |
| 20260903173504 | 79 | 210 | 4.3 | 8.7 | 0.00 | 0.00 | 0.00 | 25 | 1018.5 |
| 20260903173001 | 79 | 280 | 1.7 | 12.2 | 0.00 | 0.00 | 0.00 | 26 | 1002.8 |
| 20260903172504 | 79 | 258 | 7.0 | 15.6 | 0.00 | 0.00 | 0.00 | 25 | 1018.6 |
| 20260903172005 | 79 | 254 | 3.5 | 15.6 | 0.00 | 0.00 | 0.00 | 26 | 1018.5 |
| 20260903171504 | 79 | 306 | 5.2 | 9.6 | 0.00 | 0.00 | 0.00 | 26 | 1002.8 |
| 20260903171005 | 79 | 227 | 3.5 | 10.4 | 0.00 | 0.00 | 0.00 | 26 | 1018.5 |
| 20260903170504 | 79 | 311 | 3.5 | 7.0 | 0.00 | 0.00 | 0.00 | 26 | 1018.5 |
| 20260903170006 | 78 | 276 | 2.6 | 11.3 | 0.00 | 0.00 | 0.00 | 26 | 1018.5 |
| 20260903170002 | 78 | 276 | 1.7 | 11.3 | 0.00 | 0.00 | 0.00 | 26 | 1002.9 |
| 20260903164502 | 77 | 315 | 3.5 | 8.7 | 0.00 | 0.00 | 0.00 | 26 | 1002.9 |
| 20260903163006 | 77 | 269 | 3.5 | 10.4 | 0.00 | 0.00 | 0.00 | 28 | 1018.4 |
| 20260903163001 | 77 | 269 | 3.5 | 10.4 | 0.00 | 0.00 | 0.00 | 28 | 1002.8 |
| 20260903162504 | 77 | 307 | 4.3 | 10.4 | 0.00 | 0.00 | 0.00 | 26 | 1018.3 |
| 20260903161504 | 77 | 260 | 3.5 | 12.2 | 0.00 | 0.00 | 0.00 | 29 | 1018.3 |
| 20260903161502 | 77 | 260 | 2.6 | 12.2 | 0.00 | 0.00 | 0.00 | 29 | 1002.7 |
| 20260903161004 | 77 | 289 | 5.2 | 10.4 | 0.00 | 0.00 | 0.00 | 27 | 1018.3 |
| 20260903160504 | 76 | 313 | 1.7 | 10.4 | 0.00 | 0.00 | 0.00 | 27 | 1018.4 |
| 20260903160008 | 76 | 250 | 4.3 | 10.4 | 0.00 | 0.00 | 0.00 | 29 | 1002.8 |
| 20260903155005 | 76 | 280 | 3.5 | 11.3 | 0.00 | 0.00 | 0.00 | 31 | 1018.4 |
| 20260903154602 | 76 | 269 | 3.5 | 11.3 | 0.00 | 0.00 | 0.00 | 30 | 1002.9 |
| 20260903153505 | 75 | 253 | 7.0 | 11.3 | 0.00 | 0.00 | 0.00 | 32 | 1018.4 |
| 20260903153101 | 75 | 207 | 4.3 | 8.7 | 0.00 | 0.00 | 0.00 | 31 | 1002.9 |
| 20260903153001 | 75 | 266 | 3.5 | 8.7 | 0.00 | 0.00 | 0.00 | 32 | 1018.4 |
| 20260903152504 | 75 | 247 | 5.2 | 8.7 | 0.00 | 0.00 | 0.00 | 31 | 1018.4 |
| 20260903152007 | 75 | 313 | 4.3 | 10.4 | 0.00 | 0.00 | 0.00 | 33 | 1018.4 |
| 20260903151508 | 74 | 262 | 5.2 | 10.4 | 0.00 | 0.00 | 0.00 | 32 | 1018.5 |
| 20260903151505 | 74 | 262 | 5.2 | 10.4 | 0.00 | 0.00 | 0.00 | 32 | 1003.0 |
| 20260903151006 | 74 | 313 | 4.3 | 9.6 | 0.00 | 0.00 | 0.00 | 34 | 1018.5 |
| 20260903150505 | 74 | 272 | 6.1 | 8.7 | 0.00 | 0.00 | 0.00 | 33 | 1018.5 |
| 20260903150014 | 73 | 288 | 1.7 | 9.6 | 0.00 | 0.00 | 0.00 | 36 | 1003.2 |
| 20260903150008 | 73 | 288 | 2.6 | 9.6 | 0.00 | 0.00 | 0.00 | 36 | 1018.6 |
| 20260903145007 | 73 | 261 | 4.3 | 8.7 | 0.00 | 0.00 | 0.00 | 34 | 1018.6 |
| 20260903144507 | 72 | 261 | 2.6 | 7.8 | 0.00 | 0.00 | 0.00 | 35 | 1003.2 |
| 20260903144006 | 72 | 270 | 3.5 | 7.8 | 0.00 | 0.00 | 0.00 | 35 | 1018.6 |
| 20260903143506 | 72 | 250 | 4.3 | 10.4 | 0.00 | 0.00 | 0.00 | 34 | 1018.5 |
| 20260903143014 | 72 | 247 | 2.6 | 10.4 | 0.00 | 0.00 | 0.00 | 34 | 1003.2 |
| 20260903143007 | 72 | 247 | 3.5 | 10.4 | 0.00 | 0.00 | 0.00 | 34 | 1018.5 |
| 20260903142507 | 71 | 281 | 3.5 | 7.8 | 0.00 | 0.00 | 0.00 | 35 | 1018.6 |
| 20260903142000 | 71 | 211 | 4.3 | 7.8 | 0.00 | 0.00 | 0.00 | 36 | 1018.5 |
| 20260903141507 | 71 | 220 | 2.6 | 6.1 | 0.00 | 0.00 | 0.00 | 37 | 1003.3 |
| 20260903140506 | 69 | 252 | 2.6 | 9.6 | 0.00 | 0.00 | 0.00 | 37 | 1018.5 |
| 20260903140008 | 69 | 257 | 1.7 | 6.1 | 0.00 | 0.00 | 0.00 | 42 | 1018.5 |
| 20260903140004 | 69 | 257 | 0.9 | 6.1 | 0.00 | 0.00 | 0.00 | 42 | 1003.4 |
| 20260903135507 | 68 | 203 | 2.6 | 6.1 | 0.00 | 0.00 | 0.00 | 40 | 1018.4 |
| 20260903135008 | 68 | 188 | 0.9 | 4.3 | 0.00 | 0.00 | 0.00 | 42 | 1018.5 |
| 20260903134506 | 67 | 188 | 2.6 | 4.3 | 0.00 | 0.00 | 0.00 | 40 | 1018.4 |
| 20260903134504 | 67 | 188 | 2.6 | 4.3 | 0.00 | 0.00 | 0.00 | 40 | 1003.3 |
| 20260903134007 | 67 | 188 | 2.6 | 3.5 | 0.00 | 0.00 | 0.00 | 41 | 1018.3 |
| 20260903133506 | 66 | 218 | 1.7 | 5.2 | 0.00 | 0.00 | 0.00 | 42 | 1018.2 |
| 20260903133007 | 66 | 187 | 2.6 | 7.0 | 0.00 | 0.00 | 0.00 | 41 | 1018.1 |
| 20260903133004 | 66 | 187 | 2.6 | 7.0 | 0.00 | 0.00 | 0.00 | 41 | 1003.0 |
| 20260903132007 | 63 | 207 | 3.5 | 6.1 | 0.00 | 0.00 | 0.00 | 45 | 1018.0 |
| 20260903131503 | 63 | 236 | 1.7 | 6.1 | 0.00 | 0.00 | 0.00 | 45 | 1002.9 |
| 20260903131007 | 62 | 184 | 0.9 | 4.3 | 0.00 | 0.00 | 0.00 | 47 | 1018.0 |
| 20260903130505 | 61 | 194 | 3.5 | 4.3 | 0.00 | 0.00 | 0.00 | 46 | 1018.0 |
| 20260903130010 | 61 | 197 | 2.6 | 4.3 | 0.00 | 0.00 | 0.00 | 47 | 1018.0 |
| 20260903130007 | 61 | 197 | 1.7 | 4.3 | 0.00 | 0.00 | 0.00 | 47 | 1002.9 |
| 20260903125506 | 61 | 245 | 1.7 | 5.2 | 0.00 | 0.00 | 0.00 | 46 | 1017.9 |
| 20260903125007 | 61 | 205 | 1.7 | 5.2 | 0.00 | 0.00 | 0.00 | 45 | 1017.7 |
| 20260903124506 | 62 | 173 | 1.7 | 3.5 | 0.00 | 0.00 | 0.00 | 43 | 1017.8 |
| 20260903124504 | 62 | 173 | 0.9 | 3.5 | 0.00 | 0.00 | 0.00 | 43 | 1002.7 |
| 20260903124007 | 64 | 173 | 1.7 | 3.5 | 0.00 | 0.00 | 0.00 | 42 | 1017.8 |
| 20260903123506 | 64 | 173 | 1.7 | 3.5 | 0.00 | 0.00 | 0.00 | 40 | 1017.8 |
| 20260903123007 | 64 | 173 | 0.9 | 5.2 | 0.00 | 0.00 | 0.00 | 40 | 1017.6 |
| 20260903123005 | 64 | 173 | 0.9 | 5.2 | 0.00 | 0.00 | 0.00 | 40 | 1002.6 |
| 20260903122006 | 63 | 186 | 4.3 | 7.0 | 0.00 | 0.00 | 0.00 | 42 | 1017.5 |
| 20260903121503 | 62 | 160 | 5.2 | 7.0 | 0.00 | 0.00 | 0.00 | 43 | 1002.5 |
| 20260903121007 | 62 | 173 | 5.2 | 7.8 | 0.00 | 0.00 | 0.00 | 44 | 1017.4 |
| 20260903120506 | 61 | 149 | 5.2 | 8.7 | 0.00 | 0.00 | 0.00 | 46 | 1017.3 |
| 20260903120011 | 60 | 157 | 5.2 | 7.8 | 0.00 | 0.00 | 0.00 | 49 | 1017.3 |
| 20260903120007 | 60 | 157 | 5.2 | 7.8 | 0.00 | 0.00 | 0.00 | 49 | 1002.4 |
| 20260903115505 | 58 | 150 | 3.5 | 7.8 | 0.00 | 0.00 | 0.00 | 51 | 1017.3 |
| 20260903115009 | 57 | 188 | 0.9 | 3.5 | 0.00 | 0.00 | 0.00 | 54 | 1017.2 |
| 20260903114505 | 58 | 188 | 0.9 | 3.5 | 0.00 | 0.00 | 0.00 | 53 | 1017.2 |
| 20260903114010 | 58 | 188 | 2.6 | 4.3 | 0.00 | 0.00 | 0.00 | 53 | 1017.2 |
| 20260903113505 | 58 | 188 | 2.6 | 6.1 | 0.00 | 0.00 | 0.00 | 54 | 1017.3 |
| 20260903113009 | 57 | 161 | 3.5 | 7.0 | 0.00 | 0.00 | 0.00 | 54 | 1017.3 |
| 20260903113007 | 57 | 161 | 3.5 | 7.0 | 0.00 | 0.00 | 0.00 | 54 | 1002.3 |
| 20260903112006 | 56 | 142 | 5.2 | 7.8 | 0.00 | 0.00 | 0.00 | 58 | 1017.3 |
| 20260903111505 | 56 | 138 | 5.2 | 7.8 | 0.00 | 0.00 | 0.00 | 59 | 1017.4 |
| 20260903111503 | 56 | 138 | 5.2 | 7.8 | 0.00 | 0.00 | 0.00 | 59 | 1002.4 |
| 20260903111007 | 56 | 128 | 0.9 | 1.7 | 0.00 | 0.00 | 0.00 | 59 | 1017.3 |
| 20260903110506 | 55 | 128 | 0.0 | 2.6 | 0.00 | 0.00 | 0.00 | 61 | 1017.2 |
| 20260903110007 | 55 | 128 | 0.9 | 2.6 | 0.00 | 0.00 | 0.00 | 63 | 1017.1 |
| 20260903110005 | 55 | 128 | 0.9 | 2.6 | 0.00 | 0.00 | 0.00 | 63 | 1002.1 |
| 20260903105505 | 55 | 128 | 0.9 | 3.5 | 0.00 | 0.00 | 0.00 | 64 | 1017.1 |
| 20260903104505 | 54 | 128 | 2.6 | 3.5 | 0.00 | 0.00 | 0.00 | 66 | 1017.1 |
| 20260903103505 | 54 | 128 | 1.7 | 2.6 | 0.00 | 0.00 | 0.00 | 70 | 1017.0 |
| 20260903103007 | 54 | 128 | 0.0 | 1.7 | 0.00 | 0.00 | 0.00 | 69 | 1017.0 |
| 20260903103004 | 54 | 128 | 0.0 | 1.7 | 0.00 | 0.00 | 0.00 | 69 | 1001.9 |
| 20260903102506 | 55 | 128 | 0.0 | 1.7 | 0.00 | 0.00 | 0.00 | 68 | 1017.1 |
| 20260903102006 | 56 | 128 | 0.0 | 3.5 | 0.00 | 0.00 | 0.00 | 67 | 1017.2 |
| 20260903101507 | 56 | 128 | 2.6 | 3.5 | 0.00 | 0.00 | 0.00 | 66 | 1017.2 |
| 20260903101505 | 56 | 128 | 2.6 | 3.5 | 0.00 | 0.00 | 0.00 | 66 | 1002.0 |
| 20260903101007 | 57 | 128 | 2.6 | 3.5 | 0.00 | 0.00 | 0.00 | 65 | 1017.3 |
| 20260903100506 | 58 | 240 | 0.0 | 2.6 | 0.00 | 0.00 | 0.00 | 64 | 1017.2 |
| 20260903100006 | 57 | 240 | 1.7 | 3.5 | 0.00 | 0.00 | 0.00 | 66 | 1017.1 |
| 20260903095505 | 57 | 240 | 2.6 | 3.5 | 0.00 | 0.00 | 0.00 | 67 | 1017.0 |
| 20260903095006 | 56 | 240 | 1.7 | 4.3 | 0.00 | 0.00 | 0.00 | 68 | 1017.0 |
| 20260903094505 | 56 | 207 | 0.9 | 7.0 | 0.00 | 0.00 | 0.00 | 68 | 1017.0 |
| 20260903094503 | 56 | 207 | 0.0 | 7.0 | 0.00 | 0.00 | 0.00 | 68 | 1001.8 |
| 20260903094006 | 56 | 207 | 3.5 | 7.0 | 0.00 | 0.00 | 0.00 | 69 | 1017.1 |
| 20260903093505 | 55 | 189 | 2.6 | 4.3 | 0.00 | 0.00 | 0.00 | 70 | 1017.2 |
| 20260903093006 | 55 | 189 | 2.6 | 5.2 | 0.00 | 0.00 | 0.00 | 70 | 1002.0 |
| 20260903092505 | 55 | 198 | 3.5 | 6.1 | 0.00 | 0.00 | 0.00 | 70 | 1017.2 |
| 20260903092007 | 55 | 229 | 2.6 | 6.1 | 0.00 | 0.00 | 0.00 | 69 | 1017.2 |
| 20260903091506 | 56 | 213 | 3.5 | 5.2 | 0.00 | 0.00 | 0.00 | 70 | 1017.1 |
| 20260903091005 | 55 | 213 | 3.5 | 6.1 | 0.00 | 0.00 | 0.00 | 69 | 1017.1 |
| 20260903090505 | 56 | 199 | 1.7 | 5.2 | 0.00 | 0.00 | 0.00 | 69 | 1017.3 |
| 20260903090010 | 55 | 199 | 2.6 | 5.2 | 0.00 | 0.00 | 0.00 | 71 | 1001.8 |
| 20260903085506 | 55 | 199 | 2.6 | 3.5 | 0.00 | 0.00 | 0.00 | 70 | 1017.3 |
| 20260903085005 | 55 | 199 | 0.0 | 1.7 | 0.00 | 0.00 | 0.00 | 69 | 1017.1 |
| 20260903084506 | 56 | 199 | 1.7 | 1.7 | 0.00 | 0.00 | 0.00 | 69 | 1016.9 |
| 20260903084503 | 56 | 199 | 0.9 | 1.7 | 0.00 | 0.00 | 0.00 | 69 | 1001.5 |
| 20260903084007 | 56 | 199 | 0.9 | 1.7 | 0.00 | 0.00 | 0.00 | 69 | 1017.0 |
| 20260903083505 | 56 | 199 | 0.9 | 2.6 | 0.00 | 0.00 | 0.00 | 69 | 1017.1 |
| 20260903083005 | 56 | 199 | 0.9 | 3.5 | 0.00 | 0.00 | 0.00 | 69 | 1001.7 |
| 20260903082505 | 56 | 199 | 2.6 | 3.5 | 0.00 | 0.00 | 0.00 | 70 | 1017.1 |
| 20260903082007 | 55 | 199 | 2.6 | 3.5 | 0.00 | 0.00 | 0.00 | 71 | 1017.1 |
| 20260903081504 | 55 | 199 | 2.6 | 3.5 | 0.00 | 0.00 | 0.00 | 71 | 1001.9 |
| 20260903081006 | 55 | 199 | 2.6 | 3.5 | 0.00 | 0.00 | 0.00 | 70 | 1017.3 |
| 20260903080505 | 56 | 199 | 1.7 | 3.5 | 0.00 | 0.00 | 0.00 | 69 | 1017.4 |
| 20260903080008 | 56 | 199 | 1.7 | 3.5 | 0.00 | 0.00 | 0.00 | 69 | 1017.3 |
| 20260903080004 | 56 | 199 | 0.9 | 3.5 | 0.00 | 0.00 | 0.00 | 69 | 1001.9 |
| 20260903075505 | 56 | 199 | 2.6 | 3.5 | 0.00 | 0.00 | 0.00 | 69 | 1017.3 |
| 20260903075006 | 56 | 199 | 2.6 | 3.5 | 0.00 | 0.00 | 0.00 | 69 | 1017.4 |
| 20260903074505 | 57 | 199 | 2.6 | 4.3 | 0.00 | 0.00 | 0.00 | 68 | 1017.6 |
| 20260903074503 | 57 | 199 | 1.7 | 4.3 | 0.00 | 0.00 | 0.00 | 68 | 1002.2 |
| 20260903074005 | 57 | 199 | 1.7 | 3.5 | 0.00 | 0.00 | 0.00 | 68 | 1017.6 |
| 20260903073505 | 57 | 199 | 1.7 | 4.3 | 0.00 | 0.00 | 0.00 | 68 | 1017.5 |
| 20260903073006 | 57 | 199 | 3.5 | 4.3 | 0.00 | 0.00 | 0.00 | 67 | 1017.5 |
| 20260903072505 | 57 | 199 | 2.6 | 4.3 | 0.00 | 0.00 | 0.00 | 67 | 1017.6 |
| 20260903072006 | 57 | 199 | 3.5 | 4.3 | 0.00 | 0.00 | 0.00 | 67 | 1017.6 |
| 20260903071509 | 57 | 205 | 1.7 | 4.3 | 0.00 | 0.00 | 0.00 | 67 | 1002.2 |
| 20260903071505 | 57 | 205 | 2.6 | 4.3 | 0.00 | 0.00 | 0.00 | 67 | 1017.6 |
| 20260903071006 | 57 | 220 | 2.6 | 4.3 | 0.00 | 0.00 | 0.00 | 67 | 1017.6 |
| 20260903070505 | 58 | 211 | 2.6 | 3.5 | 0.00 | 0.00 | 0.00 | 66 | 1017.6 |
| 20260903070008 | 58 | 211 | 1.7 | 2.6 | 0.00 | 0.00 | 0.00 | 66 | 1017.6 |
| 20260903070005 | 58 | 211 | 1.7 | 2.6 | 0.00 | 0.00 | 0.00 | 66 | 1002.2 |
| 20260903065505 | 58 | 211 | 0.0 | 2.6 | 0.00 | 0.00 | 0.00 | 67 | 1017.6 |
| 20260903065006 | 58 | 211 | 0.9 | 3.5 | 0.00 | 0.00 | 0.00 | 67 | 1017.6 |
| 20260903064505 | 58 | 211 | 2.6 | 3.5 | 0.00 | 0.00 | 0.00 | 66 | 1017.6 |
| 20260903064503 | 58 | 211 | 2.6 | 3.5 | 0.00 | 0.00 | 0.00 | 66 | 1002.1 |
| 20260903064006 | 58 | 211 | 1.7 | 5.2 | 0.00 | 0.00 | 0.00 | 67 | 1017.7 |
| 20260903063506 | 58 | 222 | 3.5 | 5.2 | 0.00 | 0.00 | 0.00 | 68 | 1017.8 |
| 20260903063006 | 57 | 223 | 3.5 | 6.1 | 0.00 | 0.00 | 0.00 | 69 | 1018.0 |
| 20260903063003 | 57 | 223 | 2.6 | 6.1 | 0.00 | 0.00 | 0.00 | 69 | 1002.5 |
| 20260903062505 | 56 | 222 | 2.6 | 4.3 | 0.00 | 0.00 | 0.00 | 70 | 1017.9 |
| 20260903062006 | 56 | 223 | 2.6 | 4.3 | 0.00 | 0.00 | 0.00 | 70 | 1017.8 |
| 20260903061507 | 56 | 223 | 2.6 | 4.3 | 0.00 | 0.00 | 0.00 | 69 | 1002.3 |
| 20260903061007 | 57 | 103 | 1.7 | 6.1 | 0.00 | 0.00 | 0.00 | 67 | 1017.5 |
| 20260903060506 | 57 | 103 | 3.5 | 7.0 | 0.00 | 0.00 | 0.00 | 67 | 1017.5 |
| 20260903060008 | 58 | 82 | 2.6 | 6.1 | 0.00 | 0.00 | 0.00 | 65 | 1002.1 |
| 20260903055505 | 58 | 294 | 2.6 | 4.3 | 0.00 | 0.00 | 0.00 | 64 | 1017.7 |
| 20260903055005 | 59 | 294 | 3.5 | 4.3 | 0.00 | 0.00 | 0.00 | 64 | 1017.8 |
| 20260903054502 | 59 | 294 | 2.6 | 4.3 | 0.00 | 0.00 | 0.00 | 63 | 1002.3 |
| 20260903053504 | 60 | 294 | 0.9 | 2.6 | 0.00 | 0.00 | 0.00 | 62 | 1017.6 |
| 20260903053005 | 60 | 294 | 0.9 | 2.6 | 0.00 | 0.00 | 0.00 | 62 | 1017.6 |
| 20260903053003 | 60 | 294 | 0.9 | 2.6 | 0.00 | 0.00 | 0.00 | 62 | 1002.1 |
| 20260903052006 | 60 | 294 | 0.9 | 1.7 | 0.00 | 0.00 | 0.00 | 62 | 1017.7 |
| 20260903051505 | 60 | 294 | 0.0 | 1.7 | 0.00 | 0.00 | 0.00 | 62 | 1017.6 |
| 20260903051502 | 60 | 294 | 0.0 | 1.7 | 0.00 | 0.00 | 0.00 | 62 | 1002.0 |
| 20260903051006 | 60 | 294 | 0.0 | 1.7 | 0.00 | 0.00 | 0.00 | 61 | 1017.6 |
| 20260903050500 | 61 | 294 | 0.9 | 1.7 | 0.00 | 0.00 | 0.00 | 59 | 1017.6 |
| 20260903050006 | 61 | 294 | 0.0 | 0.9 | 0.00 | 0.00 | 0.00 | 60 | 1017.6 |
| 20260903045506 | 62 | 294 | 0.0 | 0.9 | 0.00 | 0.00 | 0.00 | 59 | 1017.8 |
| 20260903045004 | 62 | 294 | 0.0 | 2.6 | 0.00 | 0.00 | 0.00 | 59 | 1017.9 |
| 20260903044504 | 62 | 294 | 0.0 | 2.6 | 0.00 | 0.00 | 0.00 | 59 | 1018.0 |
| 20260903044005 | 62 | 294 | 0.9 | 3.5 | 0.00 | 0.00 | 0.00 | 59 | 1018.0 |
| 20260903043006 | 62 | 294 | 4.3 | 7.0 | 0.00 | 0.00 | 0.00 | 59 | 1002.5 |
| 20260903042504 | 62 | 310 | 2.6 | 3.5 | 0.00 | 0.00 | 0.00 | 59 | 1017.9 |
| 20260903042006 | 63 | 9 | 0.9 | 4.3 | 0.00 | 0.00 | 0.00 | 58 | 1017.9 |
| 20260903041558 | 63 | 5 | 0.0 | 4.3 | 0.00 | 0.00 | 0.00 | 57 | 1002.1 |
| 20260903041005 | 64 | 23 | 2.6 | 4.3 | 0.00 | 0.00 | 0.00 | 56 | 1017.7 |
| 20260903040504 | 65 | 23 | 2.6 | 4.3 | 0.00 | 0.00 | 0.00 | 54 | 1017.6 |
| 20260903040004 | 66 | 5 | 0.9 | 4.3 | 0.00 | 0.00 | 0.00 | 53 | 1001.8 |
| 20260903034504 | 68 | 343 | 0.9 | 4.3 | 0.00 | 0.00 | 0.00 | 48 | 1017.6 |
| 20260903034502 | 68 | 343 | 0.9 | 4.3 | 0.00 | 0.00 | 0.00 | 48 | 1001.9 |
| 20260903034006 | 68 | 332 | 1.7 | 9.6 | 0.00 | 0.00 | 0.00 | 47 | 1017.8 |
| 20260903033503 | 69 | 5 | 0.9 | 10.4 | 0.00 | 0.00 | 0.00 | 46 | 1017.8 |
| 20260903033004 | 69 | 5 | 2.6 | 12.2 | 0.00 | 0.00 | 0.00 | 45 | 1017.7 |
| 20260903033002 | 69 | 5 | 2.6 | 12.2 | 0.00 | 0.00 | 0.00 | 45 | 1001.9 |
| 20260903032504 | 69 | 319 | 5.2 | 12.2 | 0.00 | 0.00 | 0.00 | 45 | 1017.5 |
| 20260903032005 | 70 | 311 | 7.0 | 13.9 | 0.00 | 0.00 | 0.00 | 43 | 1017.4 |
| 20260903031505 | 71 | 329 | 5.2 | 17.4 | 0.00 | 0.00 | 0.00 | 41 | 1001.5 |
| 20260903031008 | 72 | 301 | 10.4 | 17.4 | 0.00 | 0.00 | 0.00 | 37 | 1017.0 |
| 20260903030504 | 73 | 290 | 8.7 | 12.2 | 0.00 | 0.00 | 0.00 | 35 | 1016.9 |